This demonstration page uses our WeatherBlox Daily Observations layout. Learn more.

Left ArrowRight Arrow

38.20091, -84.87328

Hourly Observations for July 9, 2021

Temp ( °F °C ) Dew Point ( °F °C ) Humidity (%) Winds ( mph kmh ) Pressure ( in mb ) Visibility ( mi km ) Precip ( " mm )
12:53 am 00:53 Partly Cloudy 72 22.2 71 21.7 97 97 Calm 29.90 1012 10 16 0.00 0.00
1:53 am 01:53 Cloudy 73 22.8 71 21.7 94 94 Calm 29.91 1013 9 14 0.00 0.00
2:20 am 02:20 Cloudy 73 22.8 71 21.7 94 94 NNW 3 6 29.91 1013 10 16 0.00 0.00
2:27 am 02:27 Cloudy 73 22.8 71 21.7 94 94 Calm 29.91 1013 9 14 0.00 0.00
2:46 am 02:46 Cloudy with Nearby Thunderstorms 73 22.8 71 21.7 94 94 WSW 3 6 29.92 1013 8 13 0.00 0.00
2:53 am 02:53 Cloudy with Nearby Thunderstorms 73 22.8 71 21.7 94 94 WSW 5 7 29.92 1013 10 16 0.00 0.00
3:17 am 03:17 Mostly Cloudy 73 22.8 71 21.7 94 94 W 5 7 29.92 1013 10 16 0.00 0.00
3:48 am 03:48 Mostly Cloudy 73 23 72 22 94 94 Calm 29.92 1013 9 14 0.00 0.00
3:53 am 03:53 Mostly Cloudy 73 22.8 71 21.7 94 94 Calm 29.92 1013 8 13 0.00 0.00
4:01 am 04:01 Cloudy 73 22.8 71 21.7 94 94 Calm 29.92 1013 7 11 0.00 0.00
4:25 am 04:25 Cloudy with Mist and Fog 73 22.8 71 21.7 94 94 WNW 5 7 29.92 1013 6 10 0.00 0.00
4:53 am 04:53 Cloudy with Mist and Fog 73 22.8 71 21.7 94 94 NW 8 13 29.93 1014 3 5 0.00 0.00
5:15 am 05:15 Cloudy 73 22.8 71 21.7 94 94 NW 5 7 29.92 1013 7 11 0.00 0.00
5:53 am 05:53 Cloudy 72 22.2 70 21.1 94 94 NW 6 9 29.94 1014 8 13 0.00 0.00
6:28 am 06:28 Cloudy with Mist and Fog 72 22.2 70 21.1 94 94 VRB 3 6 29.95 1014 6 10 0.00 0.00
6:53 am 06:53 Mostly Cloudy 71 21.7 69 20.6 94 94 NW 6 9 29.97 1015 10 16 0.00 0.00
7:36 am 07:36 Cloudy 71 21.7 68 20 90 90 NNW 6 9 29.98 1015 10 16 0.00 0.00
7:51 am 07:51 Cloudy 72 22 68 20 88 88 NNW 5 7 29.99 1015 10 16 0.00 0.00
7:53 am 07:53 Cloudy 71 21.7 68 20 90 90 NNW 6 9 29.98 1015 10 16 0.00 0.00
8:04 am 08:04 Cloudy 71 21.7 68 20 90 90 NNW 9 15 30.00 1016 10 16 0.00 0.00
8:38 am 08:38 Cloudy 71 21.7 68 20 90 90 NNW 8 13 30.00 1016 7 11 0.00 0.00
8:50 am 08:50 Mostly Cloudy 72 22 66 19 83 83 NNW 8 13 30.01 1016 8 13 0.00 0.00
8:53 am 08:53 Mostly Cloudy 71 21.7 67 19.4 87 87 NNW 8 13 30.01 1016 8 13 0.00 0.00
9:05 am 09:05 Mostly Cloudy 72 22.2 67 19.4 84 84 NW 8 13 30.01 1016 9 14 0.00 0.00
9:28 am 09:28 Mostly Cloudy 73 22.8 67 19.4 81 81 NW 8 13 30.01 1016 10 16 0.00 0.00
9:45 am 09:45 Mostly Cloudy 73 22.8 66 18.9 79 79 NNW 8 13 30.01 1016 10 16 0.00 0.00
9:53 am 09:53 Mostly Cloudy 74 23.3 66 18.9 76 76 NNW 7 11 30.02 1017 10 16 0.00 0.00
10:53 am 10:53 Mostly Cloudy 73 22.8 65 18.3 76 76 W 5 7 30.02 1017 10 16 0.00 0.00
11:21 am 11:21 Partly Cloudy 75 23.9 65 18.3 71 71 W 8 13 30.03 1017 10 16 0.00 0.00
11:28 am 11:28 Mostly Cloudy 74 23.3 65 18.3 74 74 NW 7 11 30.03 1017 10 16 0.00 0.00
11:53 am 11:53 Partly Cloudy 76 24.4 64 17.8 67 67 NNW 9 15 30.05 1018 10 16 0.00 0.00
12:53 pm 12:53 Mostly Sunny 77 25 63 17.2 62 62 VRB 7 11 30.06 1018 10 16 0.00 0.00
1:53 pm 13:53 Sunny 78 25.6 63 17.2 60 60 VRB 7 11 30.06 1018 10 16 0.00 0.00
2:53 pm 14:53 Mostly Sunny 79 26.1 63 17.2 58 58 WNW 7 11 30.05 1018 10 16 0.00 0.00
3:53 pm 15:53 Sunny 81 27.2 63 17.2 54 54 NW 9 15 30.03 1017 10 16 0.00 0.00
4:53 pm 16:53 Sunny 81 27.2 63 17.2 54 54 undefined N/A 30.01 1016 10 16 0.00 0.00
5:53 pm 17:53 Sunny 79 26.1 64 17.8 60 60 Calm 30.00 1016 10 16 0.00 0.00
6:53 pm 18:53 Sunny 78 25.6 65 18.3 64 64 NW 6 9 30.01 1016 10 16 0.00 0.00
7:53 pm 19:53 Sunny 77 25 65 18.3 66 66 N 7 11 30.02 1017 10 16 0.00 0.00
8:53 pm 20:53 Sunny 75 23.9 65 18.3 71 71 N 7 11 30.04 1017 10 16 0.00 0.00
9:53 pm 21:53 Clear 73 22.8 64 17.8 74 74 N 3 6 30.04 1017 10 16 0.00 0.00
10:53 pm 22:53 Clear 71 21.7 64 17.8 79 79 N 3 6 30.06 1018 10 16 0.00 0.00
11:53 pm 23:53 Clear 69 20.6 63 17.2 81 81 ENE 5 7 30.08 1019 10 16 0.00 0.00

Powered by AerisWeather